闪电 2-9星 (MOLNIYA 2-9)

导读

MOLNIYA 2-9(闪电2-9)是苏联(CIS)于1974年4月26日发射的第二代闪电系列通信卫星,部署在以该系列命名的闪电大椭圆轨道上。卫星采用KAUR-2平台,发射质量1700kg,设计寿命1年,配备C频段中继转发器,主要承担政府与民用通信任务,部分同系列卫星还搭载地球观测载荷,助力气象观测与早期预警系统建设。

基本信息
目录编号:
7276
目录名称:
MOLNIYA 2-9
国际标识:
1974-026A
轨道中心:
EARTH
卫星名称:
闪电 2-9星
卫星全名:
闪电 2-9星 (MOLNIYA 2-9)
卫星状态:
在轨 (已飞行19085 天)
发射日期:
1974-04-26 UTC
国别 :
俄罗斯(独联体) (CIS)
星等 :
--
轨道信息
数据来源 国际轨道数据 AOE轨道数据
星历时间 2026-07-27T08:38:50+0800
21小时前
查看轨道信息
2026-07-23T07:00:00+0800
4天前
查看轨道信息
半长轴 23236.931km 23237.07km
偏心率 0.6705854 0.670516
轨道倾角 64.388° 64.389°
近地点辐角 262.467° 262.509°
升交点赤经 13.162° 13.810°
平近点角 22.828° 32.898°
近地点 1276.447km 1278.105km
远地点 32441.141km 32439.761km
周期 587.527分钟 587.532分钟
每日圈数 2.450951 2.450929
详细信息
平衡模式:
三轴稳定
覆盖范围:
全球
运营商:
俄罗斯国家航天集团
运营商所在国:
俄罗斯
制造商(研发单位):
普里克拉德诺伊·梅哈尼基设计局
制造商所在国:
俄罗斯联邦
使用方式:
暂无
卫星简介
闪电(Molniya (Satellite))系列卫星是苏联/俄罗斯于1965年至2004年间发射的军事和通信卫星。这些卫星使用高度偏心的椭圆轨道,称为Molniya轨道(即闪电轨道),在高纬度地区具有较长的停留时间。该卫星状态未知。
2D轨道图
3D轨道图
轨道高度分析图
轨道倾角分析图
轨道综合分析图
查看轨道综合分析图